Bartlesville, OK

8:57 AM CDT on August 19, 2018 (GMT -0500)
Bartlesville Municipal

Weather History for KBVO - February, 2011

Change the Weather History Date:

Thursday, February 17, 2011

  Actual Average Record
Temperature  
Mean Temperature 68 °F -  
Max Temperature 82 °F - - ()
Min Temperature 55 °F - - ()
Cooling Degree Days 4    
Growing Degree Days 18 (Base 50)    
Moisture  
Dew Point 54 °F    
Average Humidity 66    
Maximum Humidity 87    
Minimum Humidity 34    
Precipitation  
Precipitation - - - ()
Sea Level Pressure  
Sea Level Pressure 29.75 in    
Wind  
Wind Speed 13 mph (SSW)    
Max Wind Speed 22 mph    
Max Gust Speed 31 mph    
Visibility 10 miles    
Events      
T = Trace of Precipitation, MM = Missing Value Source: NWS Daily Summary

Daily Weather History Graph

Daily Weather History Graph

Search for Another Location

Airport or City:

Astronomy

Feb. 17, 2011 Rise Set
Actual Time 7:10 AM CST 6:06 PM CST
Civil Twilight 6:43 AM CST 6:32 PM CST
Nautical Twilight 6:13 AM CST 7:03 PM CST
Astronomical Twilight 5:43 AM CST 7:33 PM CST
Moon 5:44 PM CST (2/17) 6:24 AM CST (2/17)
Length of Visible Light 11h 48m
Length of Day
10h 56m
Waxing Gibbous, 99% of the Moon is Illuminated
Feb 17
Waxing Gibbous
Feb 18
Full
Feb 24
Last Quarter
Mar 4
New
Mar 12
First Quarter

Hourly Weather History & Observations

Time (CST) Temp. Dew Point Humidity Pressure Visibility Wind Dir Wind Speed Gust Speed Precip Events Conditions
12:53 AM 55.9 °F 52.0 °F 87% 29.77 in 10.0 mi South 10.4 mph 17.3 mph N/A   Clear
1:53 AM 61.0 °F 54.0 °F 78% 29.75 in 10.0 mi South 15.0 mph 20.7 mph N/A   Clear
2:53 AM 61.0 °F 54.0 °F 78% 29.74 in 10.0 mi South 16.1 mph 26.5 mph N/A   Clear
3:53 AM 60.1 °F 54.0 °F 80% 29.72 in 10.0 mi South 15.0 mph 24.2 mph N/A   Clear
4:53 AM 59.0 °F 54.0 °F 83% 29.71 in 10.0 mi South 16.1 mph 24.2 mph N/A   Clear
5:53 AM 60.1 °F 55.0 °F 83% 29.72 in 10.0 mi South 13.8 mph 20.7 mph N/A   Overcast
6:53 AM 62.1 °F 55.9 °F 80% 29.73 in 10.0 mi South 13.8 mph - N/A   Overcast
7:53 AM 63.0 °F 55.9 °F 78% 29.73 in 10.0 mi South 18.4 mph 25.3 mph N/A   Mostly Cloudy
8:24 AM 64.4 °F 57.2 °F 77% 29.75 in 10.0 mi SSW 16.1 mph 28.8 mph N/A   Mostly Cloudy
8:48 AM 64.4 °F 57.2 °F 77% 29.75 in 10.0 mi SSW 18.4 mph 28.8 mph N/A   Scattered Clouds
8:53 AM 64.9 °F 57.0 °F 75% 29.73 in 10.0 mi SSW 16.1 mph 27.6 mph N/A   Scattered Clouds
9:53 AM 69.1 °F 57.0 °F 65% 29.74 in 10.0 mi South 18.4 mph 24.2 mph N/A   Clear
10:53 AM 73.0 °F 57.0 °F 57% 29.74 in 10.0 mi SSW 15.0 mph 25.3 mph N/A   Clear
11:53 AM 75.0 °F 55.9 °F 51% 29.73 in 10.0 mi SSW 21.9 mph 31.1 mph N/A   Clear
12:53 PM 78.1 °F 54.0 °F 43% 29.72 in 10.0 mi SW 15.0 mph 27.6 mph N/A   Clear
1:53 PM 81.0 °F 52.0 °F 36% 29.70 in 10.0 mi SW 20.7 mph 27.6 mph N/A   Clear
2:53 PM 82.0 °F 52.0 °F 35% 29.70 in 10.0 mi SSW 11.5 mph 26.5 mph N/A   Clear
3:53 PM 81.0 °F 50.0 °F 34% 29.69 in 10.0 mi SW 13.8 mph 21.9 mph N/A   Clear
4:53 PM 80.1 °F 50.0 °F 35% 29.70 in 10.0 mi SSW 16.1 mph 21.9 mph N/A   Clear
5:53 PM 75.0 °F 52.0 °F 44% 29.72 in 10.0 mi South 8.1 mph - N/A   Clear
7:53 PM 64.9 °F 52.0 °F 63% 29.79 in 10.0 mi South 3.5 mph - N/A   Clear
8:53 PM 62.1 °F 53.1 °F 72% 29.82 in 10.0 mi Calm Calm - N/A   Clear
9:53 PM 62.1 °F 55.0 °F 78% 29.85 in 10.0 mi SSW 4.6 mph - N/A   Clear
10:53 PM 61.0 °F 55.0 °F 81% 29.88 in 10.0 mi North 6.9 mph - N/A   Clear
11:53 PM 60.1 °F 55.0 °F 83% 29.91 in 10.0 mi Calm Calm - N/A   Overcast